GW6925 Weather Reports


Display with metric or nautical units.
time (UTC)temp
F
wind
direction
speed
MPH
gust
MPH
rain 1hr
in
rain 24hr
in
rain mn
in
humidity
%
barometer
mb
20260507083749 50 7 0.0 2.0 0.00 0.00 0.00 87 1007.8
20260507083233 50 7 0.0 6.0 0.00 0.00 0.00 87 1007.8
20260507083035 49 360 0.0 3.0 0.07 0.28 0.15 93 1007.3
20260507082711 50 7 0.0 6.0 0.00 0.00 0.00 87 1007.7
20260507082208 50 6 0.0 2.0 0.00 0.00 0.00 87 1007.7
20260507081647 50 6 0.0 2.0 0.00 0.00 0.00 87 1007.7
20260507081512 49 336 1.0 2.0 0.10 0.26 0.13 93 1007.2
20260507081147 50 4 0.0 6.0 0.00 0.00 0.00 87 1007.7
20260507080628 50 4 1.0 6.0 0.00 0.00 0.00 86 1007.7
20260507080123 51 0 0.0 6.0 0.00 0.00 0.00 86 1007.7
20260507080015 50 349 0.0 2.0 0.11 0.24 0.11 93 1007.3
20260507075608 51 0 0.0 4.0 0.00 0.00 0.00 87 1008.0
20260507075102 51 0 0.0 0.0 0.00 0.00 0.00 87 1008.0
20260507074556 51 0 0.0 1.0 0.00 0.00 0.00 85 1008.0
20260507074527 50 325 0.0 3.0 0.09 0.22 0.09 92 1007.5
20260507074051 51 0 0.0 1.0 0.00 0.00 0.00 85 1007.9
20260507073035 51 0 0.0 2.0 0.00 0.00 0.00 85 1007.9
20260507073006 50 334 0.0 2.0 0.08 0.21 0.08 91 1007.5
20260507072459 52 0 0.0 2.0 0.00 0.00 0.00 85 1007.6
20260507071923 52 0 0.0 6.0 0.00 0.00 0.00 83 1007.6
20260507071507 51 280 1.0 7.0 0.03 0.16 0.03 89 1007.3
20260507071339 52 0 1.0 6.0 0.00 0.00 0.00 83 1007.6
20260507070834 53 0 1.0 6.0 0.00 0.00 0.00 81 1006.6
20260507070332 53 37 1.0 8.0 0.00 0.00 0.00 82 1006.6
20260507070013 52 26 1.0 5.0 0.00 0.13 0.00 89 1006.3
20260507065831 53 13 1.0 8.0 0.00 0.00 0.00 83 1006.5
20260507065319 54 213 0.0 2.0 0.00 0.00 0.00 85 1006.5
20260507064820 54 30 0.0 2.0 0.00 0.00 0.00 85 1006.5
20260507064519 53 328 0.0 3.0 0.00 0.13 0.00 91 1006.1
20260507064258 54 30 0.0 2.0 0.00 0.00 0.00 84 1007.0
20260507063234 54 30 0.0 6.0 0.00 0.00 0.00 85 1007.0
20260507063027 53 295 1.0 3.0 0.00 0.13 0.00 90 1006.6
20260507062704 54 30 0.0 6.0 0.00 0.00 0.00 85 1007.0
20260507062159 54 17 0.0 2.0 0.00 0.00 0.00 84 1007.0
20260507061643 54 17 0.0 2.0 0.00 0.00 0.00 84 1007.0
20260507061504 53 310 1.0 3.0 0.00 0.13 0.00 90 1006.6
20260507061138 54 17 0.0 2.0 0.00 0.00 0.00 84 1006.9
20260507060635 54 20 0.0 2.0 0.00 0.00 0.00 83 1006.9
20260507060133 55 44 1.0 6.0 0.00 0.00 0.00 83 1006.9
20260507060011 54 289 2.0 4.0 0.00 0.13 0.00 89 1006.6
20260507055540 55 44 1.0 6.0 0.00 0.00 0.00 83 1007.0
20260507054531 55 343 1.0 2.0 0.00 0.00 0.00 85 1007.0
20260507054513 54 342 0.0 6.0 0.00 0.13 0.00 90 1006.7
20260507054011 55 335 1.0 6.0 0.00 0.00 0.00 84 1006.9
20260507053018 55 298 0.0 2.0 0.00 0.13 0.00 91 1006.7
20260507052941 56 298 0.0 4.0 0.00 0.00 0.00 85 1006.9
20260507052355 56 342 0.0 4.0 0.00 0.00 0.00 86 1007.3
20260507051523 56 304 2.0 8.0 0.00 0.13 0.00 92 1007.0
20260507051332 56 320 0.0 4.0 0.00 0.00 0.00 87 1007.0
20260507050259 56 332 0.0 2.0 0.00 0.00 0.00 86 1007.0
20260507050008 56 227 0.0 2.0 0.00 0.13 0.00 92 1006.8
20260507045744 56 332 0.0 2.0 0.00 0.00 0.00 86 1007.2
20260507045235 57 332 0.0 1.0 0.00 0.00 0.00 87 1007.2
20260507044727 57 332 0.0 2.0 0.00 0.00 0.00 86 1007.2
20260507044511 56 305 0.0 2.0 0.01 0.13 0.00 92 1006.9
20260507044211 57 332 0.0 2.0 0.00 0.00 0.00 86 1007.0
20260507043644 57 335 0.0 2.0 0.00 0.00 0.00 86 1007.0
20260507043027 56 346 0.0 3.0 0.01 0.13 0.00 91 1006.7
20260507042132 57 332 0.0 4.0 0.00 0.00 0.00 86 1006.9
20260507041624 57 349 1.0 6.0 0.00 0.00 0.00 86 1006.9
20260507041524 57 285 0.0 5.0 0.01 0.13 0.00 91 1006.8
20260507041119 57 349 1.0 6.0 0.00 0.00 0.00 86 1006.8
20260507040619 58 0 1.0 4.0 0.00 0.00 0.00 86 1006.8
20260507040115 58 6 1.0 6.0 0.00 0.00 0.00 87 1006.8
20260507040025 57 276 1.0 6.0 0.01 0.13 0.00 92 1006.6
20260507035548 58 7 1.0 6.0 0.00 0.00 0.00 87 1006.8
20260507035036 58 356 0.0 6.0 0.00 0.00 0.00 88 1006.8
20260507034529 58 354 1.0 6.0 0.00 0.00 0.00 88 1006.8
20260507034507 58 310 1.0 7.0 0.00 0.12 0.12 93 1006.6
20260507034030 58 357 1.0 6.0 0.00 0.00 0.00 88 1006.8
20260507033516 58 6 1.0 6.0 0.00 0.00 0.00 88 1006.8
20260507033016 58 308 1.0 7.0 0.00 0.12 0.12 93 1006.6
20260507033011 58 20 2.0 9.0 0.00 0.00 0.00 87 1006.8
20260507032511 58 23 3.0 9.0 0.00 0.00 0.00 88 1006.9
20260507031520 58 293 2.0 13.0 0.00 0.12 0.12 93 1006.8
20260507030958 59 0 3.0 10.0 0.00 0.00 0.00 87 1006.7
20260507030434 59 212 3.0 8.0 0.00 0.00 0.00 88 1006.7
20260507030024 58 304 1.0 6.0 0.00 0.12 0.12 93 1006.6
20260507025926 58 343 2.0 8.0 0.00 0.00 0.00 87 1006.7
20260507025414 58 0 1.0 6.0 0.00 0.00 0.00 88 1006.7
20260507024910 58 299 2.0 7.0 0.00 0.00 0.00 88 1006.7
20260507024526 58 214 1.0 4.0 0.00 0.12 0.12 93 1006.6
20260507024408 58 0 3.0 8.0 0.00 0.00 0.00 87 1006.7
20260507023900 58 275 3.0 8.0 0.00 0.00 0.00 87 1006.7
20260507023013 58 321 1.0 7.0 0.00 0.12 0.12 93 1006.6
20260507022852 58 346 3.0 10.0 0.00 0.00 0.00 87 1006.7
20260507022349 58 319 3.0 10.0 0.00 0.00 0.00 87 1006.6
20260507021849 58 246 2.0 8.0 0.00 0.00 0.00 87 1006.6
20260507021521 58 184 1.0 8.0 0.00 0.12 0.12 93 1006.5
20260507021348 58 309 3.0 8.0 0.00 0.00 0.00 87 1006.8
20260507020842 58 254 2.0 8.0 0.00 0.00 0.00 88 1006.8
20260507020340 58 253 2.0 8.0 0.00 0.00 0.00 88 1006.8
20260507020024 58 150 0.0 5.0 0.00 0.12 0.12 93 1006.6
20260507015330 58 260 2.0 8.0 0.00 0.00 0.00 88 1006.6
20260507014828 58 343 1.0 6.0 0.00 0.00 0.00 88 1006.6
20260507014523 58 132 2.0 4.0 0.00 0.12 0.12 93 1006.5
20260507014324 58 295 2.0 7.0 0.00 0.00 0.00 88 1006.7
20260507013814 58 222 2.0 8.0 0.00 0.00 0.00 88 1006.7
20260507013313 58 0 3.0 10.0 0.00 0.00 0.00 88 1006.7
20260507013035 57 286 2.0 10.0 0.00 0.12 0.12 93 1006.6
20260507012810 58 301 3.0 10.0 0.00 0.00 0.00 88 1006.7
20260507012311 58 322 2.0 8.0 0.00 0.00 0.00 88 1006.7
20260507011808 58 346 2.0 10.0 0.00 0.00 0.00 88 1006.7
20260507011532 57 150 3.0 14.0 0.00 0.12 0.12 93 1006.6
20260507011307 58 316 2.0 8.0 0.00 0.00 0.00 88 1007.0
20260507010800 58 329 2.0 8.0 0.00 0.00 0.00 88 1007.0
20260507010300 58 277 2.0 6.0 0.00 0.00 0.00 88 1007.0
20260507010020 57 217 3.0 7.0 0.00 0.12 0.12 93 1006.8
20260507005248 58 306 2.0 8.0 0.00 0.00 0.00 88 1007.1
20260507004745 58 302 2.0 8.0 0.00 0.00 0.00 88 1007.1
20260507004526 57 161 3.0 7.0 0.00 0.12 0.12 93 1006.8
20260507004241 57 306 3.0 8.0 0.00 0.00 0.00 88 1007.2
20260507003739 58 322 3.0 8.0 0.00 0.00 0.00 88 1007.2
20260507003241 57 313 3.0 8.0 0.00 0.00 0.00 88 1007.2
20260507003012 57 250 3.0 8.0 0.00 0.12 0.12 93 1006.9
20260507002741 57 356 4.0 13.0 0.00 0.00 0.00 88 1007.0
20260507002241 57 294 3.0 13.0 0.00 0.00 0.00 88 1007.0
20260507001730 57 320 2.0 9.0 0.00 0.00 0.00 88 1007.0
20260507001516 57 178 1.0 6.0 0.00 0.12 0.12 92 1006.8
20260507001230 58 302 3.0 13.0 0.00 0.00 0.00 87 1007.0
20260507000724 57 272 3.0 13.0 0.00 0.00 0.00 87 1007.0
20260507000226 58 308 3.0 8.0 0.00 0.00 0.00 87 1007.0
20260507000020 57 246 1.0 9.0 0.00 0.12 0.12 92 1006.9
20260506235724 58 251 3.0 10.0 0.00 0.00 0.00 87 1006.8
20260506235220 58 270 4.0 11.0 0.00 0.00 0.00 87 1006.8
20260506234713 58 260 4.0 11.0 0.00 0.00 0.00 87 1006.8
20260506234530 57 221 2.0 10.0 0.00 0.12 0.12 92 1006.7
20260506234158 58 275 2.0 8.0 0.00 0.00 0.00 87 1006.8
20260506233653 58 272 2.0 8.0 0.00 0.00 0.00 87 1006.8
20260506233148 58 274 3.0 10.0 0.00 0.00 0.00 87 1006.8
20260506233012 57 159 2.0 7.0 0.00 0.12 0.12 92 1006.6
20260506232632 58 264 3.0 10.0 0.00 0.00 0.00 87 1006.7
20260506232126 58 325 4.0 10.0 0.00 0.00 0.00 87 1006.7
20260506231510 58 304 2.0 7.0 0.01 0.12 0.12 91 1006.5
20260506231106 58 251 3.0 8.0 0.00 0.00 0.00 86 1006.8
20260506230600 58 176 3.0 9.0 0.00 0.00 0.00 86 1006.8
20260506230055 58 287 3.0 9.0 0.00 0.00 0.00 86 1006.8
20260506230014 58 290 2.0 8.0 0.01 0.12 0.12 91 1006.6
20260506225555 58 227 3.0 10.0 0.00 0.00 0.00 86 1006.7
20260506225052 58 256 4.0 10.0 0.00 0.00 0.00 86 1006.7
20260506224527 58 158 4.0 10.0 0.01 0.12 0.12 91 1006.5
20260506224049 58 319 4.0 11.0 0.00 0.00 0.00 85 1006.7
20260506223544 58 336 4.0 13.0 0.00 0.00 0.00 86 1006.7
20260506223042 59 244 4.0 11.0 0.00 0.00 0.00 87 1006.7
20260506223025 58 282 2.0 8.0 0.02 0.12 0.12 91 1006.6
20260506222540 59 323 2.0 6.0 0.00 0.00 0.00 87 1006.6
20260506222022 59 309 2.0 9.0 0.00 0.00 0.00 87 1006.6
20260506221522 58 311 3.0 9.0 0.00 0.00 0.00 86 1006.6
20260506221508 58 301 1.0 10.0 0.01 0.11 0.11 92 1006.5
20260506220018 59 292 4.0 10.0 0.00 0.00 0.00 87 1006.8
20260506220014 58 167 2.0 7.0 0.02 0.11 0.11 92 1006.6
20260506215510 59 280 5.0 10.0 0.00 0.00 0.00 86 1007.1
20260506214520 58 97 2.0 6.0 0.02 0.11 0.11 92 1006.9
20260506214456 59 268 5.0 15.0 0.00 0.00 0.00 87 1007.1
20260506213952 59 261 5.0 13.0 0.00 0.00 0.00 87 1007.1
20260506213445 59 253 3.0 8.0 0.00 0.00 0.00 86 1007.1
20260506213023 59 153 2.0 8.0 0.01 0.10 0.10 91 1007.0
20260506212939 59 239 3.0 8.0 0.00 0.00 0.00 86 1007.1
20260506212438 59 240 3.0 8.0 0.00 0.00 0.00 85 1007.3
20260506211937 59 257 3.0 8.0 0.00 0.00 0.00 86 1007.3
20260506211523 59 146 0.0 10.0 0.01 0.10 0.10 90 1007.1
20260506211418 59 299 3.0 10.0 0.00 0.00 0.00 85 1007.3
20260506210012 59 184 1.0 9.0 0.00 0.09 0.09 89 1007.4
20260506205350 59 299 4.0 11.0 0.00 0.00 0.00 84 1007.4
20260506204845 59 299 3.0 11.0 0.00 0.00 0.00 84 1007.4
20260506204515 59 159 1.0 5.0 0.01 0.09 0.09 90 1007.2
20260506204338 59 291 2.0 8.0 0.00 0.00 0.00 85 1007.7
20260506203826 60 284 3.0 10.0 0.00 0.00 0.00 84 1007.7
20260506203319 60 274 4.0 10.0 0.00 0.00 0.00 84 1007.7
20260506203023 59 149 3.0 11.0 0.01 0.09 0.09 90 1007.3
20260506202812 59 304 4.0 15.0 0.00 0.00 0.00 85 1007.7
20260506202258 59 326 4.0 15.0 0.00 0.00 0.00 85 1007.7
20260506201753 60 258 4.0 13.0 0.00 0.00 0.00 84 1007.7
20260506201526 59 350 2.0 10.0 0.04 0.09 0.09 90 1007.5
20260506201253 59 304 4.0 17.0 0.00 0.00 0.00 85 1007.9
20260506200752 59 299 4.0 17.0 0.00 0.00 0.00 85 1007.9
20260506200250 59 260 4.0 14.0 0.00 0.00 0.00 85 1007.9
20260506200027 59 285 1.0 8.0 0.05 0.09 0.09 90 1007.6
20260506195746 59 330 3.0 14.0 0.00 0.00 0.00 85 1007.9
20260506195242 59 248 2.0 7.0 0.00 0.00 0.00 85 1007.9
20260506194742 59 261 2.0 8.0 0.00 0.00 0.00 85 1007.9
20260506194513 59 152 1.0 4.0 0.06 0.08 0.08 90 1007.7
20260506193232 60 271 5.0 13.0 0.00 0.00 0.00 83 1007.9
20260506193018 59 140 2.0 12.0 0.08 0.08 0.08 88 1007.8
20260506192732 59 268 4.0 13.0 0.00 0.00 0.00 83 1008.0
20260506192230 59 291 3.0 13.0 0.00 0.00 0.00 82 1008.0
20260506191730 59 288 5.0 13.0 0.00 0.00 0.00 81 1008.0
20260506191523 59 140 3.0 12.0 0.05 0.05 0.05 87 1007.9
20260506191230 60 302 5.0 9.0 0.00 0.00 0.00 81 1008.1
20260506190722 60 264 5.0 9.0 0.00 0.00 0.00 80 1008.1
20260506190218 60 295 3.0 9.0 0.00 0.00 0.00 80 1008.1
20260506190034 60 187 2.0 9.0 0.04 0.04 0.04 86 1007.9
20260506185700 60 336 2.0 8.0 0.00 0.00 0.00 80 1008.4
20260506185159 60 233 2.0 8.0 0.00 0.00 0.00 79 1008.4
20260506184650 60 267 3.0 8.0 0.00 0.00 0.00 78 1008.4
20260506184529 60 236 1.0 9.0 0.02 0.02 0.02 85 1008.2
20260506184145 61 295 4.0 13.0 0.00 0.00 0.00 76 1008.5
20260506183629 62 336 3.0 13.0 0.00 0.00 0.00 73 1008.5
20260506183121 62 328 4.0 11.0 0.00 0.00 0.00 70 1008.5
20260506183016 62 201 3.0 12.0 0.00 0.00 0.00 77 1008.4
20260506182612 62 308 7.0 14.0 0.00 0.00 0.00 69 1008.8
20260506182104 63 332 7.0 17.0 0.00 0.00 0.00 68 1008.8
20260506181603 64 30 7.0 17.0 0.00 0.00 0.00 67 1008.8
20260506181521 63 349 2.0 12.0 0.00 0.00 0.00 74 1008.5
20260506181102 64 280 7.0 16.0 0.00 0.00 0.00 65 1008.7
20260506180559 65 246 7.0 16.0 0.00 0.00 0.00 63 1008.7
20260506180054 65 315 7.0 13.0 0.00 0.00 0.00 62 1008.7
20260506180026 65 304 2.0 8.0 0.00 0.00 0.00 69 1008.6
20260506175553 66 0 7.0 20.0 0.00 0.00 0.00 60 1008.8
20260506175039 66 288 7.0 20.0 0.00 0.00 0.00 60 1008.8
20260506174535 67 326 8.0 15.0 0.00 0.00 0.00 58 1008.8
20260506174527 66 9 5.0 16.0 0.00 0.00 0.00 66 1008.7
20260506174032 67 224 8.0 16.0 0.00 0.00 0.00 59 1008.7
20260506173034 69 177 3.0 14.0 0.00 0.00 0.00 63 1008.6
20260506173031 68 244 7.0 17.0 0.00 0.00 0.00 56 1008.7
20260506172525 68 308 8.0 17.0 0.00 0.00 0.00 55 1008.9
20260506172025 69 241 9.0 20.0 0.00 0.00 0.00 55 1008.9
20260506171520 69 309 4.0 17.0 0.00 0.00 0.00 61 1008.8
20260506171514 69 305 9.0 20.0 0.00 0.00 0.00 54 1008.9
20260506171008 70 325 7.0 16.0 0.00 0.00 0.00 53 1008.8
20260506170503 69 340 6.0 15.0 0.00 0.00 0.00 55 1008.8
20260506170024 68 194 6.0 16.0 0.00 0.00 0.00 62 1008.8
20260506164955 70 179 8.0 16.0 0.00 0.00 0.00 53 1008.8
20260506164524 71 132 8.0 18.0 0.00 0.00 0.00 59 1008.7
20260506164453 70 250 6.0 15.0 0.00 0.00 0.00 53 1008.8
20260506163453 69 299 8.0 15.0 0.00 0.00 0.00 55 1009.0
20260506163042 69 200 3.0 9.0 0.00 0.00 0.00 62 1008.9
20260506162952 69 239 6.0 13.0 0.00 0.00 0.00 55 1009.0
20260506162449 70 237 5.0 14.0 0.00 0.00 0.00 54 1009.3
20260506161516 70 194 4.0 10.0 0.00 0.00 0.00 60 1009.2
20260506161443 70 237 7.0 17.0 0.00 0.00 0.00 53 1009.3
20260506160439 70 263 6.0 15.0 0.00 0.00 0.00 53 1009.4
20260506160023 70 213 4.0 12.0 0.00 0.00 0.00 61 1009.3
20260506155935 70 233 4.0 14.0 0.00 0.00 0.00 53 1009.4
20260506155434 69 316 6.0 17.0 0.00 0.00 0.00 54 1009.7
20260506154534 70 107 8.0 21.0 0.00 0.00 0.00 60 1009.6
20260506154423 70 246 7.0 14.0 0.00 0.00 0.00 53 1009.7
20260506153029 70 154 6.0 14.0 0.00 0.00 0.00 59 1009.6
20260506152855 70 312 6.0 15.0 0.00 0.00 0.00 52 1009.8
20260506152351 71 315 5.0 22.0 0.00 0.00 0.00 53 1009.9
20260506151849 71 248 5.0 22.0 0.00 0.00 0.00 52 1009.9
20260506151537 71 187 4.0 16.0 0.00 0.00 0.00 58 1009.6
20260506151349 70 295 6.0 15.0 0.00 0.00 0.00 54 1009.9
20260506150845 69 335 6.0 13.0 0.00 0.00 0.00 54 1009.9
20260506150346 69 342 5.0 13.0 0.00 0.00 0.00 55 1009.9
20260506150019 70 281 4.0 11.0 0.00 0.00 0.00 63 1009.7
20260506145339 68 267 6.0 10.0 0.00 0.00 0.00 57 1010.1
20260506144834 68 264 6.0 14.0 0.00 0.00 0.00 57 1010.1
20260506144522 68 214 7.0 13.0 0.00 0.00 0.00 64 1009.8
20260506144333 67 304 6.0 14.0 0.00 0.00 0.00 58 1010.2
20260506143833 67 295 6.0 14.0 0.00 0.00 0.00 58 1010.2
20260506143331 67 354 6.0 14.0 0.00 0.00 0.00 57 1010.2
20260506143027 67 178 4.0 14.0 0.00 0.00 0.00 64 1009.9
20260506142829 67 261 5.0 13.0 0.00 0.00 0.00 57 1009.8
20260506142325 67 309 5.0 13.0 0.00 0.00 0.00 58 1009.8
20260506141527 67 190 6.0 16.0 0.00 0.00 0.00 65 1009.6
20260506140819 67 268 6.0 17.0 0.00 0.00 0.00 57 1009.9
20260506140315 68 263 6.0 10.0 0.00 0.00 0.00 57 1009.9
20260506140033 68 189 3.0 10.0 0.00 0.00 0.00 66 1009.6
20260506135813 67 261 7.0 13.0 0.00 0.00 0.00 59 1009.9
20260506135310 67 289 7.0 13.0 0.00 0.00 0.00 58 1009.9
20260506134809 67 224 6.0 13.0 0.00 0.00 0.00 60 1009.9
20260506134524 67 250 3.0 18.0 0.00 0.00 0.00 66 1009.6
20260506134307 67 320 6.0 13.0 0.00 0.00 0.00 59 1010.1
20260506133801 67 258 6.0 13.0 0.00 0.00 0.00 60 1010.1
20260506133255 67 251 7.0 22.0 0.00 0.00 0.00 60 1010.1
20260506133025 67 172 4.0 16.0 0.00 0.00 0.00 67 1009.8
20260506132243 66 281 6.0 13.0 0.00 0.00 0.00 63 1010.5
20260506131741 65 301 7.0 14.0 0.00 0.00 0.00 64 1010.5
20260506131531 66 258 5.0 11.0 0.00 0.00 0.00 70 1010.2
20260506131239 65 277 6.0 14.0 0.00 0.00 0.00 66 1010.5
20260506130233 64 291 5.0 15.0 0.00 0.00 0.00 66 1010.5
20260506130030 64 259 5.0 10.0 0.00 0.00 0.00 73 1010.3
20260506125731 63 268 6.0 15.0 0.00 0.00 0.00 67 1010.5
20260506125232 63 319 5.0 9.0 0.00 0.00 0.00 67 1010.5
20260506124732 63 192 6.0 10.0 0.00 0.00 0.00 68 1010.5
20260506124519 63 271 1.0 13.0 0.00 0.00 0.00 74 1010.2
20260506124229 63 260 5.0 11.0 0.00 0.00 0.00 68 1010.6
20260506123723 63 250 3.0 11.0 0.00 0.00 0.00 69 1010.6
20260506123023 63 65 2.0 7.0 0.00 0.00 0.00 76 1010.2
20260506122717 62 271 6.0 15.0 0.00 0.00 0.00 69 1010.5
20260506122213 62 0 6.0 15.0 0.00 0.00 0.00 69 1010.5
20260506121713 62 260 5.0 13.0 0.00 0.00 0.00 69 1010.5
20260506121508 62 159 6.0 12.0 0.00 0.00 0.00 76 1010.1
20260506120159 62 315 5.0 13.0 0.00 0.00 0.00 72 1010.5
20260506120014 62 138 4.0 12.0 0.00 0.00 0.00 78 1010.1
20260506115641 61 342 5.0 13.0 0.00 0.00 0.00 72 1010.9
20260506115135 61 256 4.0 11.0 0.00 0.00 0.00 72 1010.9
20260506114629 60 323 3.0 8.0 0.00 0.00 0.00 74 1010.9
20260506114519 61 296 3.0 11.0 0.00 0.00 0.00 80 1010.5
20260506114123 60 330 4.0 10.0 0.00 0.00 0.00 74 1010.9
20260506113614 60 253 4.0 10.0 0.00 0.00 0.00 74 1010.9
20260506113109 60 256 3.0 10.0 0.00 0.00 0.00 74 1010.9
20260506113024 59 192 2.0 12.0 0.00 0.00 0.00 81 1010.5
20260506112105 60 287 4.0 13.0 0.00 0.00 0.00 74 1011.0
20260506111603 60 272 3.0 13.0 0.00 0.00 0.00 75 1011.0
20260506111530 60 331 4.0 11.0 0.00 0.00 0.00 81 1010.7
20260506110553 59 285 4.0 13.0 0.00 0.00 0.00 76 1010.9
20260506110051 59 316 4.0 13.0 0.00 0.00 0.00 76 1010.9
20260506110011 59 290 2.0 8.0 0.00 0.00 0.00 82 1010.6
20260506105551 59 278 4.0 11.0 0.00 0.00 0.00 76 1010.8
20260506105045 59 251 4.0 11.0 0.00 0.00 0.00 76 1010.8
20260506104543 58 256 3.0 10.0 0.00 0.00 0.00 76 1010.8
20260506104516 58 170 1.0 7.0 0.00 0.00 0.00 83 1010.5
20260506104043 58 232 4.0 11.0 0.00 0.00 0.00 76 1010.8
20260506103539 58 244 3.0 11.0 0.00 0.00 0.00 76 1010.8
20260506103033 59 241 3.0 10.0 0.00 0.00 0.00 76 1010.8
20260506103022 58 120 2.0 6.0 0.00 0.00 0.00 82 1010.5
20260506102532 59 287 3.0 10.0 0.00 0.00 0.00 76 1010.6
20260506102034 58 309 3.0 10.0 0.00 0.00 0.00 76 1010.6
20260506101530 58 254 3.0 10.0 0.00 0.00 0.00 76 1010.6
20260506101526 58 219 2.0 7.0 0.00 0.00 0.00 82 1010.4
20260506100515 58 247 3.0 10.0 0.00 0.00 0.00 76 1010.7
20260506100028 58 142 1.0 5.0 0.00 0.00 0.00 82 1010.6
20260506100014 58 257 3.0 9.0 0.00 0.00 0.00 76 1010.7
20260506095511 58 250 2.0 8.0 0.00 0.00 0.00 76 1010.5
20260506094955 59 247 2.0 8.0 0.00 0.00 0.00 75 1010.5
20260506094512 58 159 3.0 8.0 0.00 0.00 0.00 82 1010.4
20260506094454 58 274 3.0 10.0 0.00 0.00 0.00 75 1010.5
20260506093951 59 305 4.0 10.0 0.00 0.00 0.00 75 1010.4
20260506093451 59 318 4.0 10.0 0.00 0.00 0.00 75 1010.4
20260506093022 58 148 1.0 6.0 0.00 0.00 0.00 82 1010.3
20260506092945 59 241 4.0 10.0 0.00 0.00 0.00 75 1010.4
20260506092446 59 292 4.0 11.0 0.00 0.00 0.00 76 1010.5
20260506091924 59 333 4.0 11.0 0.00 0.00 0.00 75 1010.5
20260506091524 58 264 2.0 14.0 0.00 0.00 0.00 81 1010.4
20260506090416 59 304 3.0 9.0 0.00 0.00 0.00 75 1010.6
20260506090027 58 47 2.0 9.0 0.00 0.00 0.00 81 1010.4
20260506085913 59 282 3.0 8.0 0.00 0.00 0.00 75 1010.6
20260506085412 59 302 4.0 11.0 0.00 0.00 0.00 75 1010.7
20260506084910 59 311 5.0 11.0 0.00 0.00 0.00 74 1010.7
20260506084512 58 160 4.0 10.0 0.00 0.00 0.00 81 1010.4
20260506084406 59 278 5.0 15.0 0.00 0.00 0.00 74 1010.7